Weather History for PATC - December, 2012

Change the Weather History Date:

Wednesday, December 12, 2012

  Actual Average Record
Temperature  
Mean Temperature -6 °F -  
Max Temperature -3 °F 11 °F 41 °F (2000)
Min Temperature -9 °F 0 °F -20 °F (1998)
Degree Days  
Heating Degree Days 71    
Moisture  
Dew Point -9 °F    
Average Humidity 85    
Maximum Humidity 92    
Minimum Humidity 77    
Precipitation  
Precipitation 0.00 in - - ()
Sea Level Pressure  
Sea Level Pressure 29.32 in    
Wind  
Wind Speed 47 mph (NNE)    
Max Wind Speed 54 mph    
Max Gust Speed 61 mph    
Averages and records for this station are not official NWS values.
T = Trace of Precipitation, MM = Missing Value Source: NWS Daily Summary

Daily Weather History Graph

Daily Weather History Graph

Search for Another Location

Airport or City:

Trip Planner

Search our weather history database for the weather conditions in past years. The results will help you decide how hot, cold, wet, or windy it might be!

Date:

Astronomy

Dec. 12, 2012 Rise Set
Actual Time 12:23 PM AKST 3:47 PM AKST
Civil Twilight 10:52 AM AKST 5:18 PM AKST
Nautical Twilight 9:38 AM AKST 6:32 PM AKST
Astronomical Twilight 8:35 AM AKST 7:36 PM AKST
Moon 11:26 AM AKST (12/12) 3:54 PM AKST (12/12)
Length of Visible Light 6h 25m
Length of Day
3h 23m
Waning Crescent, 0% of the Moon is Illuminated
Dec 12
Waning Crescent
Dec 12
New
Dec 19
First Quarter
Dec 28
Full
Jan 4
Last Quarter

Hourly Weather History & Observations

Time (AKST) Temp. Windchill Dew Point Humidity Pressure Visibility Wind Dir Wind Speed Gust Speed Precip Events Conditions
12:45 AM -5.8 °F -38.7 °F -9.4 °F 84% 29.38 in 0.8 mi NE 47.2 mph 54.1 mph N/A Snow Light Snow
12:55 AM -5.3 °F -37.6 °F -8.7 °F 85% 29.38 in 0.5 mi NE 46.0 mph 52.9 mph N/A Snow Light Snow
1:05 AM -5.8 °F -39.2 °F -9.4 °F 84% 29.36 in 0.2 mi NE 49.5 mph 54.1 mph N/A Snow Light Snow
1:40 AM -5.8 °F -38.4 °F -7.6 °F 92% 29.36 in 0.5 mi NE 46.0 mph 50.6 mph N/A Snow Light Snow
1:55 AM -5.1 °F -37.1 °F -8.3 °F 86% 29.36 in 0.2 mi NNE 44.9 mph - N/A Snow Light Snow
2:15 AM -4.0 °F -36.1 °F -7.6 °F 85% 29.34 in 0.5 mi NE 47.2 mph 52.9 mph N/A Snow Light Snow
2:35 AM -4.0 °F -35.3 °F -7.6 °F 85% 29.35 in 0.2 mi NE 43.7 mph 52.9 mph N/A Snow Light Snow
3:40 AM -4.0 °F -35.6 °F -7.6 °F 85% 29.33 in 0.5 mi NE 44.9 mph 54.1 mph N/A Snow Light Snow
3:55 AM -4.9 °F -37.7 °F -8.0 °F 87% 29.32 in 0.2 mi NE 48.3 mph 51.8 mph N/A Snow Light Snow
4:00 AM -4.0 °F -35.6 °F -7.6 °F 85% 29.32 in 0.5 mi NE 44.9 mph 51.8 mph N/A Snow Light Snow
4:50 AM -4.0 °F -35.9 °F -7.6 °F 85% 29.29 in 0.2 mi NE 46.0 mph 52.9 mph N/A Snow Light Snow
4:55 AM -4.5 °F -36.6 °F -7.6 °F 87% 29.29 in 0.2 mi NNE 46.0 mph 52.9 mph N/A Snow Light Snow
5:30 AM -4.0 °F -36.1 °F -7.6 °F 85% 29.29 in 0.5 mi NNE 47.2 mph 52.9 mph N/A Snow Light Snow
5:55 AM -4.7 °F -37.2 °F -7.8 °F 87% 29.28 in 0.5 mi NNE 47.2 mph 52.9 mph N/A Snow Light Snow
6:20 AM -4.0 °F -36.1 °F -7.6 °F 85% 29.27 in 0.8 mi NNE 47.2 mph 52.9 mph N/A Snow Light Snow
6:55 AM -4.2 °F -36.9 °F -7.2 °F 87% 29.26 in 0.5 mi NNE 49.5 mph 55.2 mph N/A Snow Light Snow
7:55 AM -3.5 °F -36.2 °F -6.9 °F 85% 29.23 in 0.5 mi NNE 50.6 mph 58.7 mph N/A Snow Light Snow
8:40 AM -4.0 °F -37.2 °F -7.6 °F 85% 29.24 in 0.8 mi NNE 51.8 mph 58.7 mph N/A Snow Light Snow
8:56 AM -4.4 °F -37.4 °F -7.8 °F 85% 29.23 in 0.8 mi NNE 50.6 mph 58.7 mph N/A Snow Light Snow
9:00 AM -4.0 °F -37.2 °F -7.6 °F 85% 29.22 in 1.0 mi NNE 51.8 mph 57.5 mph N/A Snow Light Snow
9:21 AM -4.0 °F -37.7 °F -7.6 °F 85% 29.22 in 0.5 mi NNE 54.1 mph 59.8 mph N/A Snow Light Snow
9:41 AM -4.0 °F -37.2 °F -7.6 °F 85% 29.22 in 0.8 mi NNE 51.8 mph 61.0 mph N/A Snow Light Snow
9:55 AM -4.4 °F -37.4 °F -7.8 °F 85% 29.23 in 0.5 mi NNE 50.6 mph 58.7 mph N/A Snow Light Snow
10:55 AM -4.5 °F -37.2 °F -8.1 °F 84% 29.24 in 0.5 mi NNE 48.3 mph 58.7 mph N/A Snow Light Snow
11:31 AM -4.0 °F -36.1 °F -7.6 °F 85% 29.26 in 0.8 mi NNE 47.2 mph 56.4 mph N/A Snow Light Snow
11:55 AM -4.5 °F -37.2 °F -8.0 °F 85% 29.26 in 0.8 mi NNE 48.3 mph 54.1 mph N/A Snow Light Snow
12:55 PM -4.7 °F -36.0 °F -8.0 °F 86% 29.29 in 0.5 mi NNE 42.6 mph 50.6 mph N/A Snow Light Snow
1:06 PM -4.0 °F -35.0 °F -7.6 °F 85% 29.29 in 0.8 mi NNE 42.6 mph 49.5 mph N/A Snow Light Snow
1:26 PM -4.0 °F -35.6 °F -7.6 °F 85% 29.30 in 0.2 mi NNE 44.9 mph 49.5 mph N/A Snow Light Snow
1:55 PM -4.5 °F -36.1 °F -8.0 °F 85% 29.30 in 0.5 mi NNE 43.7 mph 52.9 mph N/A Snow Light Snow
2:46 PM -5.8 °F -38.1 °F -9.4 °F 84% 29.30 in 0.2 mi NNE 44.9 mph 50.6 mph N/A Snow Light Snow
2:55 PM -5.3 °F -36.5 °F -8.7 °F 85% 29.31 in 0.2 mi NNE 41.4 mph 52.9 mph N/A Snow Light Snow
3:55 PM -5.8 °F -38.4 °F -9.2 °F 85% 29.31 in 0.2 mi NNE 46.0 mph 51.8 mph N/A Snow Light Snow
4:21 PM -5.8 °F -38.4 °F -9.4 °F 84% 29.32 in 0.5 mi NNE 46.0 mph 52.9 mph N/A Snow Light Snow
4:55 PM -7.1 °F -40.5 °F -10.7 °F 84% 29.33 in 0.5 mi NNE 47.2 mph 54.1 mph N/A Snow Light Snow
5:26 PM -7.6 °F -40.6 °F -11.2 °F 84% 29.34 in 0.2 mi NNE 44.9 mph 52.9 mph N/A Snow Light Snow
5:55 PM -7.4 °F -39.5 °F -11.0 °F 84% 29.36 in 0.2 mi NNE 41.4 mph 49.5 mph N/A Snow Light Snow
6:46 PM -7.6 °F -40.9 °F -11.2 °F 84% 29.36 in 0.5 mi NNE 46.0 mph 51.8 mph N/A Snow Light Snow
6:55 PM -8.1 °F -40.8 °F -11.9 °F 84% 29.38 in 0.5 mi NNE 42.6 mph 50.6 mph N/A Snow Light Snow
7:21 PM -7.6 °F -39.4 °F -13.0 °F 77% 29.39 in 0.8 mi NNE 40.3 mph 47.2 mph N/A Snow Light Snow
7:55 PM -8.7 °F -42.2 °F -12.5 °F 83% 29.39 in 0.8 mi NNE 44.9 mph 51.8 mph N/A Snow Light Snow
8:55 PM -8.9 °F -41.5 °F -12.5 °F 84% 29.42 in 0.8 mi NNE 41.4 mph 49.5 mph N/A Snow Light Snow
9:55 PM -9.0 °F -42.1 °F -12.8 °F 83% 29.43 in 0.8 mi NNE 42.6 mph 49.5 mph N/A Snow Light Snow
10:55 PM -9.4 °F -43.2 °F -13.0 °F 84% 29.43 in 0.5 mi NNE 44.9 mph 49.5 mph N/A Snow Light Snow
11:26 PM -9.4 °F -43.2 °F -13.0 °F 84% 29.44 in 0.8 mi NNE 44.9 mph 50.6 mph N/A Snow Light Snow
11:55 PM -9.8 °F -44.0 °F -13.5 °F 83% 29.46 in 0.8 mi NNE 46.0 mph 50.6 mph N/A Snow Light Snow